This is the latest recevied weather packets stored in our database for station/object SQ6XL-13. If no packets are shown the sender has not sent any weather packets the latest 10 day(s).
| Time | Temp. | Humidity | Pressure | Rain* | Wind** | Luminosity | Snow |
|---|---|---|---|---|---|---|---|
| 1778045177 | 15.56° C | 80% | 1006.2 hPa | 0 mm | - | - | - |
| 1778044617 | 15.56° C | 82% | 1006.2 hPa | 0 mm | - | - | - |
| 1778044032 | 15° C | 81% | 1006.1 hPa | 0 mm | - | - | - |
| 1778043437 | 14.44° C | 83% | 1006 hPa | 0 mm | - | - | - |
| 1778042857 | 13.89° C | 84% | 1005.9 hPa | 0 mm | - | - | - |
| 1778042347 | 13.33° C | 81% | 1006 hPa | 0 mm | - | - | - |
| 1778041807 | 13.33° C | 80% | 1006 hPa | 0 mm | - | - | - |
| 1778041222 | 13.33° C | 80% | 1005.9 hPa | 0 mm | - | - | - |
| 1778040667 | 12.78° C | 85% | 1005.7 hPa | 0 mm | - | - | - |
| 1778040067 | 12.78° C | 85% | 1005.6 hPa | 0 mm | - | - | - |
| 1778039487 | 12.78° C | 88% | 1005.6 hPa | 0 mm | - | - | - |
| 1778038887 | 12.22° C | 91% | 1005.6 hPa | 0 mm | - | - | - |
| 1778038322 | 12.22° C | 92% | 1005.6 hPa | 0 mm | - | - | - |
| 1778037827 | 11.67° C | 91% | 1005 hPa | 0 mm | - | - | - |
| 1778037282 | 11.67° C | 89% | 1005.4 hPa | 0 mm | - | - | - |
| 1778036702 | 11.67° C | 89% | 1005.6 hPa | 0 mm | - | - | - |
| 1778036137 | 11.67° C | 88% | 1005.6 hPa | 0 mm | - | - | - |
| 1778035577 | 11.67° C | 88% | 1005.6 hPa | 0 mm | - | - | - |
| 1778034997 | 12.22° C | 86% | 1005.8 hPa | 0 mm | - | - | - |
| 1778034442 | 12.22° C | 84% | 1005.9 hPa | 0 mm | - | - | - |
| 1778033952 | 12.22° C | 82% | 1006 hPa | 0 mm | - | - | - |
| 1778033367 | 12.78° C | 81% | 1006.1 hPa | 0 mm | - | - | - |
| 1778032767 | 13.33° C | 79% | 1005.9 hPa | 0 mm | - | - | - |
| 1778032197 | 13.33° C | 75% | 1005.9 hPa | 0 mm | - | - | - |
| 1778031617 | 13.89° C | 72% | 1005.8 hPa | 0 mm | - | - | - |
* Rain latest hour (hover to see other rain measurements)
** Current wind speed in m/s (hover to see current wind gust speed)